Hayward, WI

11:30 PM CDT on April 29, 2017 (GMT -0500)
Sawyer County

Weather History for KHYR - November, 2010

Change the Weather History Date:

Monday, November 1, 2010

  Actual Average Record
Temperature  
Mean Temperature 34 °F -  
Max Temperature 51 °F 53 °F 66 °F (2000)
Min Temperature 19 °F 35 °F 16 °F (2014)
Degree Days  
Heating Degree Days 30    
Moisture  
Dew Point 24 °F    
Average Humidity 75    
Maximum Humidity 92    
Minimum Humidity 39    
Precipitation  
Precipitation 0.00 in - - ()
Sea Level Pressure  
Sea Level Pressure 30.45 in    
Wind  
Wind Speed 1 mph (SW)    
Max Wind Speed 6 mph    
Max Gust Speed -    
Visibility 10 miles    
Events      
Averages and records for this station are not official NWS values.
T = Trace of Precipitation, MM = Missing Value Source: NWS Daily Summary

Daily Weather History Graph

Daily Weather History Graph

Search for Another Location

Airport or City:

Trip Planner

Search our weather history database for the weather conditions in past years. The results will help you decide how hot, cold, wet, or windy it might be!

Date:

Astronomy

Nov. 01, 2010 Rise Set
Actual Time 7:46 AM CDT 5:51 PM CDT
Civil Twilight 7:15 AM CDT 6:22 PM CDT
Nautical Twilight 6:39 AM CDT 6:58 PM CDT
Astronomical Twilight 6:04 AM CDT 7:32 PM CDT
Moon 2:05 AM CDT (11/1) 3:13 PM CDT (11/1)
Length of Visible Light 11h 07m
Length of Day
10h 05m
Waning Crescent, 26% of the Moon is Illuminated
Nov 1
Waning Crescent
Nov 5
New
Nov 13
First Quarter
Nov 21
Full
Nov 28
Last Quarter

Hourly Weather History & Observations

Time (CDT) Temp. Windchill Dew Point Humidity Pressure Visibility Wind Dir Wind Speed Gust Speed Precip Events Conditions
12:53 AM 23.0 °F - 21.0 °F 92% 30.39 in 9.0 mi Calm Calm - N/A   Clear
1:53 AM 23.0 °F - 19.9 °F 88% 30.39 in 10.0 mi Calm Calm - N/A   Clear
2:53 AM 21.0 °F - 19.0 °F 92% 30.40 in 10.0 mi Calm Calm - N/A   Clear
3:53 AM 21.0 °F - 18.0 °F 88% 30.39 in 10.0 mi Calm Calm - N/A   Clear
4:53 AM 21.0 °F - 18.0 °F 88% 30.40 in 10.0 mi Calm Calm - N/A   Clear
5:53 AM 19.9 °F - 17.1 °F 89% 30.42 in 10.0 mi Calm Calm - N/A   Clear
6:53 AM 19.0 °F - 16.0 °F 88% 30.43 in 10.0 mi Calm Calm - N/A   Clear
7:53 AM 19.0 °F - 16.0 °F 88% 30.46 in 10.0 mi Calm Calm - N/A   Clear
8:53 AM 25.0 °F - 21.9 °F 88% 30.48 in 10.0 mi Calm Calm - N/A   Clear
9:53 AM 34.0 °F - 30.9 °F 89% 30.48 in 10.0 mi Calm Calm - N/A   Clear
10:53 AM 42.1 °F - 32.0 °F 67% 30.48 in 10.0 mi Calm Calm - N/A   Clear
11:53 AM 46.0 °F 44.8 °F 28.9 °F 51% 30.47 in 10.0 mi Variable 3.5 mph - N/A   Clear
12:53 PM 48.0 °F - 28.9 °F 48% 30.46 in 10.0 mi SSW 4.6 mph - N/A   Partly Cloudy
1:53 PM 48.9 °F - 28.0 °F 44% 30.45 in 10.0 mi Variable 3.5 mph - N/A   Clear
2:53 PM 50.0 °F - 28.0 °F 43% 30.44 in 10.0 mi Variable 5.8 mph - N/A   Clear
3:53 PM 50.0 °F - 26.1 °F 39% 30.44 in 10.0 mi SW 3.5 mph - N/A   Clear
4:53 PM 48.9 °F - 27.0 °F 43% 30.44 in 10.0 mi SSW 3.5 mph - N/A   Clear
5:53 PM 41.0 °F - 30.0 °F 65% 30.45 in 10.0 mi Calm Calm - N/A   Clear
6:53 PM 34.0 °F - 27.0 °F 75% 30.46 in 10.0 mi Calm Calm - N/A   Clear
7:53 PM 30.9 °F - 25.0 °F 79% 30.48 in 10.0 mi Calm Calm - N/A   Clear
8:53 PM 28.9 °F - 25.0 °F 85% 30.47 in 10.0 mi Calm Calm - N/A   Clear
9:53 PM 28.0 °F - 24.1 °F 85% 30.47 in 10.0 mi Calm Calm - N/A   Clear
10:53 PM 27.0 °F - 24.1 °F 89% 30.47 in 10.0 mi Calm Calm - N/A   Clear
11:53 PM 26.1 °F - 23.0 °F 88% 30.46 in 10.0 mi Calm Calm - N/A   Clear